Location: Leuk
(46.3174°N, 7.6341°E)
Time: 20:38:52
(UTC+00:00)

COSMOS 2487 - Pass Details

Date: 09 March 2021
Orbit: 432 x 436 km, 74.7° (Epoch: 22 April)

Event Time Altitude Azimuth Distance (km) Brightness Sun altitude
Exits shadow 03:50:58 42° 2° (N) 638 3.2 -21.8°
Drops below altitude 10° 03:53:22 10° 16° (NNE) 1,553 5.5 -21.4°
Sets 03:55:28 0° 19° (NNE) 2,428 6.6 -21.1°
